Wind_Speed
3 4 2 3 5 6 6 7 7 5 6 6 5 3 2 3 1 4 2 5 2 2 4 5 5 9 9 10 12 19 20 16 19 23 26 28 28 28 28 28 30 31 32 30 28 28 26 25 24 23 21 21 22 24 24 25 25 24 24 25 25 26 28 29 31 32 33 34 35 35 35 35 35 34 33 32 32 33 35 38 39 38 35 35 37 34
3 3 4 7 8 8 7 6 6 4 5 5 5 4 2 2 1 2 1 5 4 2 4 3 5 10 10 9 14 17 14 13 18 21 25 29 29 29 29 30 31 31 31 29 28 28 27 26 25 24 24 24 25 25 25 25 25 24 24 24 23 23 27 29 30 32 33 34 35 35 34 33 34 33 33 32 31 30 32 36 39 38 37 37 38 37
3 1 7 9 7 5 2 4 7 5 6 5 3 4 2 1 2 2 3 4 2 2 4 5 6 11 10 9 14 16 15 18 25 26 28 30 29 30 31 33 34 33 33 31 30 28 27 27 27 27 27 26 26 25 26 26 25 26 26 26 25 25 26 27 29 31 33 34 34 34 34 33 33 33 32 32 31 30 31 34 38 40 41 41 40 39
2 5 8 7 6 7 5 4 8 6 4 4 4 5 1 3 1 2 4 4 1 1 2 4 5 10 9 6 10 17 20 21 25 27 30 30 30 32 33 34 35 34 34 31 29 27 26 27 27 28 29 28 27 27 27 28 28 29 29 29 29 28 28 28 28 30 31 33 33 34 34 33 33 32 32 32 33 33 33 34 36 38 40 41 41 40
4 6 3 1 4 7 5 4 6 5 1 2 3 5 3 2 2 2 2 3 2 3 3 4 5 7 5 4 6 10 12 13 16 18 22 26 27 29 31 32 33 33 32 29 26 24 24 25 26 27 28 28 28 28 27 28 28 30 30 31 30 30 30 30 29 30 31 33 34 35 35 35 35 34 35 36 36 37 36 35 35 35 36 37 38 39
5 4 1 3 4 6 7 3 3 6 2 3 1 4 5 5 5 2 3 5 5 5 4 4 4 6 5 5 7 7 6 9 13 12 16 21 21 23 28 30 30 29 28 26 24 22 21 22 23 25 26 27 28 27 26 25 26 28 28 29 30 30 31 31 31 31 32 33 35 36 37 37 38 38 39 39 39 38 37 35 34 34 33 34 36 37
2 1 2 5 5 6 7 2 3 6 5 1 3 4 4 7 6 4 4 4 2 3 3 4 3 5 8 7 7 6 5 9 12 11 17 22 21 23 28 29 28 25 24 23 21 20 20 20 21 23 25 26 26 25 24 24 25 26 26 27 27 29 30 31 31 31 32 34 35 36 37 38 38 39 39 39 38 38 37 35 35 34 32 32 34 35
2 3 4 5 6 6 5 2 4 6 7 2 4 4 5 7 6 5 6 3 2 2 4 4 4 2 8 6 4 2 4 8 10 12 16 21 24 26 28 27 24 20 16 15 15 16 18 20 21 22 23 23 23 22 23 24 25 25 25 25 25 26 27 29 30 31 33 34 35 36 36 37 38 38 38 37 37 37 37 36 36 36 34 32 32 34
1 5 5 5 5 3 4 4 4 6 6 4 6 4 6 7 6 5 6 3 1 2 5 4 2 2 6 7 1 2 4 8 11 12 12 17 22 23 22 20 14 10 9 9 10 11 14 17 20 21 21 21 21 21 23 23 23 24 24 24 24 24 24 25 27 30 31 33 34 35 36 36 37 37 37 36 37 37 37 37 37 37 36 34 32 33
0 4 5 6 5 3 4 3 3 4 4 4 4 5 6 5 5 5 5 3 3 2 4 5 3 2 6 8 5 2 2 7 10 10 8 10 13 13 10 7 5 5 5 5 5 6 9 11 13 15 17 17 17 18 19 19 20 20 21 21 22 22 22 23 25 27 29 30 32 33 35 36 36 35 35 36 37 37 37 38 38 38 37 35 33 33
1 1 1 3 4 5 5 2 3 3 6 6 5 6 7 6 5 4 3 4 3 3 6 7 7 4 4 6 6 3 4 6 6 6 4 4 4 6 7 8 5 3 3 3 4 5 6 6 7 9 10 11 12 13 13 14 15 15 16 17 18 19 21 22 23 24 25 27 28 30 32 33 34 34 34 35 36 37 37 38 38 38 37 36 34 33
4 2 0 1 3 6 7 5 7 6 6 7 5 5 4 4 4 5 5 4 1 5 6 6 4 5 5 6 5 5 6 6 4 1 1 1 8 14 11 6 3 3 3 3 4 4 5 4 5 6 7 8 9 9 9 9 10 11 12 13 15 17 18 20 21 22 23 23 24 26 27 29 30 31 32 33 34 34 35 36 36 36 37 36 35 34
3 2 2 2 2 4 6 5 5 6 5 6 5 6 5 2 3 3 3 0 3 6 4 3 0 3 6 7 6 9 10 7 4 4 5 5 8 9 5 1 2 3 3 4 5 5 5 5 6 7 7 8 8 8 8 8 8 8 9 11 13 14 15 17 18 19 20 20 20 22 23 24 26 27 29 30 31 32 32 33 34 35 36 36 35 34
2 6 2 3 1 4 6 5 3 1 0 4 5 5 5 3 2 3 4 1 4 5 3 2 1 3 5 4 9 13 13 9 3 2 4 5 5 3 1 3 5 5 5 5 5 6 7 7 8 9 9 9 8 8 8 8 8 9 10 12 13 14 14 15 16 16 17 16 17 18 19 21 22 23 24 26 27 28 29 30 32 33 34 34 34 32
3 4 3 5 3 7 8 6 7 6 4 5 4 6 6 5 5 4 3 3 4 4 3 3 1 3 2 3 7 9 12 15 11 3 4 3 2 1 3 5 6 7 8 7 5 5 7 8 10 11 11 10 10 10 10 9 10 11 12 13 14 14 14 15 14 14 14 14 14 15 16 16 17 18 20 22 23 24 26 27 29 30 31 31 32 30
4 5 7 4 5 12 10 7 8 7 2 3 3 5 4 5 5 3 3 5 4 1 2 2 3 5 4 6 9 8 11 16 14 9 5 5 3 0 5 5 5 6 7 6 5 5 5 6 8 10 11 12 13 14 15 14 13 14 14 14 14 14 14 14 13 12 11 11 11 12 12 12 13 14 16 18 20 21 23 24 26 27 27 28 29 29
3 4 5 1 2 7 8 7 7 5 2 2 3 4 5 5 7 4 3 0 3 2 3 2 5 5 3 6 9 7 7 10 12 13 14 12 7 5 6 5 4 3 3 3 4 5 6 6 8 9 10 12 14 16 19 19 18 17 17 15 14 13 14 13 12 10 9 9 10 10 10 10 10 11 13 15 16 18 20 22 23 24 24 25 26 27
5 2 4 1 3 5 3 4 2 2 4 5 4 6 3 1 3 4 1 3 3 3 4 2 7 5 2 5 6 5 4 7 8 9 15 17 11 10 9 8 6 3 4 4 5 8 9 9 10 10 10 10 11 14 18 22 23 23 21 18 14 14 13 12 10 9 8 8 8 8 8 8 8 10 11 13 14 16 18 21 22 22 23 24 24 25
5 2 4 1 3 4 1 3 1 4 2 5 4 4 4 2 1 2 2 2 1 3 5 4 5 4 4 5 4 5 6 8 8 7 10 10 7 10 10 11 7 3 5 7 8 11 13 14 16 16 15 14 13 13 15 18 23 26 24 20 16 14 12 11 10 8 8 7 6 6 7 7 8 9 11 12 13 14 16 18 20 21 22 23 24 25
3 3 4 1 1 2 3 2 5 2 2 2 2 2 2 3 4 3 3 4 4 3 4 4 3 3 6 6 5 8 9 8 8 6 3 1 6 9 11 12 7 1 6 10 12 15 17 19 21 22 22 21 19 17 15 16 18 21 22 19 16 15 14 12 11 9 8 7 6 7 7 7 9 10 11 13 14 15 15 16 18 20 21 22 23 24
2 3 4 2 3 0 1 4 7 7 4 3 3 3 2 2 2 2 2 2 4 4 3 3 5 6 5 4 7 9 7 5 5 4 4 1 7 7 5 4 2 4 10 13 15 18 19 20 23 24 26 27 25 24 22 20 19 19 19 18 17 16 16 14 12 10 8 7 7 8 9 10 10 12 13 14 15 16 16 16 17 18 20 21 22 23
3 3 4 2 1 3 6 6 6 9 9 6 6 7 7 5 4 2 3 2 2 4 5 3 6 10 6 4 5 5 5 6 5 3 1 6 9 7 5 4 5 9 12 13 15 17 19 19 21 24 27 29 30 29 28 24 22 20 19 18 19 19 17 16 14 11 8 8 9 10 10 12 12 13 15 16 17 17 18 18 18 18 19 20 21 22
4 4 4 3 4 5 7 6 2 5 5 3 4 4 5 5 6 6 5 4 1 3 3 4 4 11 5 7 7 6 5 3 1 5 7 9 12 11 8 8 10 11 11 14 16 17 19 19 19 21 24 28 31 32 31 28 23 20 20 20 21 21 19 18 16 12 11 12 12 12 13 14 15 15 17 17 18 19 19 20 19 19 20 20 20 21
4 3 3 1 3 3 4 5 4 2 2 2 4 2 3 3 4 5 5 4 3 5 4 3 6 11 4 5 5 2 2 4 4 5 6 6 7 7 7 10 13 15 16 19 20 20 21 20 19 18 21 28 33 34 33 31 26 20 23 24 23 24 22 20 18 16 16 16 15 15 16 16 16 17 18 18 19 19 20 21 20 21 21 21 21 21
6 3 4 3 1 3 4 4 4 4 0 3 4 3 5 5 4 3 2 2 1 6 6 5 8 10 3 4 4 4 5 4 3 4 2 1 3 5 10 14 18 20 21 21 22 22 20 18 18 19 22 28 34 36 34 32 29 24 24 27 25 25 24 23 22 21 21 20 19 18 17 17 17 17 18 19 20 21 21 21 21 22 23 23 22 21
7 3 4 6 6 6 4 3 4 3 1 2 3 5 7 7 8 4 2 2 5 7 7 6 8 12 8 1 4 4 4 4 4 3 1 4 10 15 17 18 18 20 21 22 23 22 18 16 17 21 25 30 34 35 35 32 29 27 24 27 28 27 27 26 26 25 24 23 21 20 18 18 18 18 19 21 22 23 23 23 23 23 24 24 23 22
3 0 3 6 6 8 6 5 5 4 5 5 6 8 8 8 10 7 4 5 8 7 6 8 10 15 18 10 7 6 0 3 4 7 11 17 20 18 16 18 22 23 23 23 23 20 19 21 26 28 29 31 33 35 34 32 30 29 27 27 28 30 31 30 30 29 28 27 24 22 20 19 19 19 21 22 24 25 26 26 25 25 25 25 25 24
4 1 2 3 4 6 5 4 2 4 5 7 7 8 7 6 8 9 8 10 8 6 9 13 12 14 20 19 16 10 2 2 7 10 14 18 17 17 21 27 30 30 28 26 24 25 28 32 33 30 29 31 33 34 32 31 31 31 30 29 29 30 32 33 35 34 32 30 28 25 22 21 20 21 22 24 27 28 30 29 28 26 26 26 26 26
4 2 3 1 3 5 4 3 1 3 2 3 4 6 6 6 7 10 13 13 9 8 11 11 8 10 16 20 17 6 3 7 11 11 14 16 17 22 28 31 32 32 29 26 26 29 33 34 32 30 31 33 33 32 31 31 32 31 31 31 30 31 31 32 35 36 36 34 32 28 25 25 24 24 24 26 29 31 33 32 31 28 27 28 28 27
4 4 4 2 4 7 6 6 3 2 2 2 4 5 5 7 9 11 13 12 8 8 10 10 10 13 15 15 15 11 9 14 18 19 20 20 21 24 27 29 30 29 26 27 30 32 32 32 32 32 33 33 31 31 32 32 31 32 32 31 31 31 30 30 33 34 35 36 34 30 29 29 28 27 28 29 31 34 35 35 33 30 28 29 29 28
3 4 3 4 3 9 9 8 6 5 5 5 6 6 6 9 11 10 9 7 6 7 10 12 14 16 14 10 15 25 24 15 16 23 25 26 26 24 23 24 25 25 27 31 34 34 32 32 32 32 32 32 33 33 32 31 30 31 32 31 31 30 30 30 31 31 32 33 31 30 30 30 31 32 33 33 33 35 36 36 34 32 29 29 30 29
3 2 2 5 4 8 8 8 9 7 4 4 7 10 13 13 11 9 7 6 8 10 11 11 10 12 12 7 11 25 23 11 14 25 28 29 28 21 19 22 24 27 31 33 34 34 33 33 33 33 33 34 33 31 30 29 28 28 28 29 29 29 30 31 30 30 30 30 29 30 30 31 33 35 37 36 35 36 37 37 36 33 31 30 30 29
4 4 3 4 4 7 6 6 6 3 1 4 10 14 16 15 12 11 9 10 12 11 8 9 10 12 12 8 10 17 17 15 20 26 29 29 25 19 19 23 27 30 33 35 36 36 36 35 35 35 34 32 29 28 28 27 27 27 27 27 27 28 30 30 30 29 30 29 30 31 31 32 35 36 38 37 36 36 38 37 36 35 33 30 30 29
6 6 4 4 3 6 4 6 5 3 5 7 8 10 14 16 16 15 15 17 16 12 9 10 11 11 12 13 14 16 19 22 25 31 36 31 21 18 22 28 33 35 36 37 38 37 35 33 32 30 28 27 27 26 25 24 25 27 26 25 26 27 29 30 30 30 30 30 31 31 32 33 35 36 37 36 36 37 38 37 36 36 34 31 29 30
6 6 4 3 2 2 2 5 4 6 8 6 2 6 13 16 17 17 17 17 15 13 12 13 14 14 17 21 23 25 28 28 29 36 39 28 17 19 26 33 35 32 29 28 28 27 26 25 24 24 24 25 26 25 23 23 24 25 26 25 25 25 26 28 30 31 32 32 32 32 32 32 33 33 34 34 35 36 37 36 36 36 34 31 29 29
6 5 3 2 3 1 2 4 6 4 2 5 6 5 7 7 7 9 11 13 13 14 14 13 15 16 20 26 31 34 32 26 26 29 21 14 10 14 20 23 22 20 19 20 19 20 20 21 23 24 26 26 25 24 23 23 24 26 27 27 26 25 25 26 29 30 31 32 32 32 31 31 32 33 33 34 35 36 36 36 36 35 33 30 28 28
6 4 2 1 3 3 3 5 4 3 5 7 9 5 4 4 5 6 6 9 9 9 9 11 14 15 18 24 28 28 23 18 18 13 10 11 7 10 16 19 18 17 17 18 18 19 20 21 22 23 24 24 24 24 25 26 27 28 29 29 29 28 27 26 28 29 30 31 31 30 31 31 31 32 32 33 33 35 35 35 35 33 31 28 27 28
7 6 4 4 3 3 4 5 3 3 5 9 11 5 5 8 9 8 6 6 2 5 5 2 5 6 7 11 16 16 12 10 10 4 12 14 14 14 18 20 19 19 19 19 20 21 20 20 21 21 22 24 24 24 26 27 28 29 29 29 29 29 28 27 27 27 28 28 28 28 28 28 29 30 30 31 32 33 33 33 33 32 29 27 26 26
8 6 5 5 5 4 4 5 5 5 5 7 9 4 3 11 11 9 4 5 1 8 11 8 4 5 7 10 14 11 5 5 7 4 15 20 19 19 22 23 22 22 21 20 22 23 23 23 23 23 23 24 25 24 24 26 27 27 28 28 27 28 28 27 26 25 25 25 25 26 27 27 28 29 29 30 30 30 31 31 30 29 26 25 25 24
7 5 5 6 7 7 6 5 4 4 5 6 7 3 2 5 11 8 4 4 1 7 11 10 7 7 10 13 14 8 3 3 8 13 21 23 21 21 21 22 23 24 24 24 24 25 27 27 27 27 27 27 27 27 26 26 26 26 26 26 26 27 27 27 26 24 24 24 24 24 25 25 26 27 27 27 27 27 28 28 27 26 25 25 24 23
4 4 5 7 7 8 10 8 5 4 5 7 7 5 2 6 8 4 5 2 2 4 8 9 8 8 10 14 12 6 7 12 17 23 25 24 23 23 22 22 23 23 24 25 26 26 28 29 29 30 30 30 29 29 27 28 27 27 26 26 26 26 26 27 27 26 25 25 24 25 25 25 25 26 25 25 25 25 26 25 25 24 24 24 24 23
4 3 4 7 8 7 7 8 6 5 5 4 3 1 4 6 4 4 3 4 3 3 6 7 6 8 12 15 13 13 18 23 24 26 27 25 25 25 25 25 26 26 26 28 28 28 30 31 31 31 32 31 31 30 29 29 28 27 27 27 27 26 26 27 27 27 27 27 28 28 27 26 25 25 24 25 25 25 25 24 24 23 24 25 25 23
5 4 3 6 7 5 5 6 6 5 2 0 2 1 3 3 3 3 4 4 3 4 4 4 5 7 11 15 17 20 24 26 27 28 29 28 26 26 27 28 29 30 30 30 29 30 31 32 33 33 33 32 32 31 31 30 30 28 27 28 27 27 28 29 28 29 29 30 29 29 27 26 25 24 24 24 24 24 24 24 24 24 25 26 26 25
3 5 4 4 4 4 5 6 5 4 3 5 4 2 3 4 6 7 7 5 5 6 5 5 7 8 8 11 16 20 23 26 27 28 29 29 29 29 30 30 31 32 32 32 31 30 30 31 33 33 33 32 32 32 32 32 32 31 30 28 28 29 30 31 31 31 30 29 28 27 26 25 24 23 23 23 23 23 24 24 24 25 26 27 28 27
4 4 4 4 4 3 5 5 4 4 7 8 7 5 5 7 10 11 9 6 4 5 5 7 11 11 10 11 14 18 22 26 27 28 29 30 31 31 31 31 32 33 34 34 33 32 31 32 33 33 33 32 31 31 32 32 33 34 32 30 29 29 30 30 31 31 30 28 27 26 25 24 23 23 23 22 23 23 24 24 25 26 27 28 28 27
3 1 2 1 3 4 3 4 6 6 6 6 6 5 6 8 9 8 8 7 4 5 7 10 12 12 12 14 17 20 24 26 27 29 31 32 34 34 33 33 33 33 34 35 35 34 34 34 34 34 34 32 31 30 31 31 32 34 33 31 29 29 29 29 29 30 30 29 27 26 25 24 23 22 22 22 22 22 23 23 25 27 28 29 28 26
1 2 3 1 3 4 3 3 7 7 3 4 7 2 7 10 7 5 9 11 10 11 12 13 13 14 16 19 20 21 24 25 26 29 32 34 36 36 36 36 36 36 37 37 37 36 36 36 36 35 35 34 32 30 30 31 31 32 32 31 29 28 28 28 29 29 29 29 27 25 24 23 22 22 21 22 22 22 22 22 24 26 27 28 27 26
1 3 3 2 4 4 3 5 3 2 1 5 6 2 8 6 4 10 13 14 14 14 14 13 14 18 21 23 21 19 21 25 26 28 32 35 36 37 37 38 38 39 39 38 37 37 37 37 37 36 36 35 33 32 32 31 30 29 29 28 28 27 27 28 28 29 28 27 26 25 24 22 22 22 21 22 22 22 22 22 23 24 25 25 25 25
3 2 2 2 1 1 5 8 6 3 3 3 3 4 2 9 16 19 18 14 11 11 12 13 16 20 22 22 19 18 21 26 28 28 32 35 37 38 38 39 40 40 40 39 38 37 37 38 38 37 37 36 34 34 33 31 29 27 26 26 26 26 27 27 28 28 28 27 25 24 23 22 22 21 21 22 22 22 22 21 21 22 22 22 23 23
4 3 3 3 2 2 3 2 1 2 1 4 6 9 16 23 26 25 19 13 9 10 13 16 18 20 21 20 20 21 23 26 28 30 33 36 38 39 39 40 41 42 41 41 40 39 38 37 36 37 37 36 35 35 34 31 29 27 26 26 25 25 26 27 27 27 27 26 26 25 24 23 22 22 22 23 24 24 24 22 22 22 22 22 22 22
6 5 5 4 3 4 4 2 1 0 4 11 18 22 24 26 26 23 16 11 11 13 15 17 20 22 22 22 23 24 26 28 31 32 34 38 40 40 40 41 41 42 43 42 41 40 40 38 36 37 37 36 35 35 34 32 29 28 27 27 26 26 27 27 27 27 26 27 26 25 24 24 23 24 25 25 25 25 25 24 25 24 23 23 22 21
Wind_Direction
124 92 132 187 192 208 215 185 179 183 144 135 127 110 163 152 281 276 273 311 356 108 251 246 255 270 270 273 274 276 277 262 251 251 251 253 253 251 250 250 251 251 256 261 259 256 255 256 257 255 253 249 244 239 236 235 236 236 237 238 239 239 238 235 233 233 233 233 233 234 235 237 239 241 241 240 236 235 235 236 236 237 238 239 240 239
92 106 212 217 202 198 213 190 149 114 89 94 106 82 29 129 194 258 276 308 358 74 271 309 314 279 269 271 274 274 274 261 250 246 249 252 251 251 252 253 254 256 259 260 257 255 253 252 252 251 250 247 244 240 236 234 234 235 237 239 242 242 240 238 237 235 236 238 239 240 241 241 241 242 244 246 245 241 237 234 234 235 236 236 238 238
64 196 239 232 205 153 111 111 105 92 82 78 96 94 16 277 194 289 323 310 15 99 273 343 339 284 271 263 267 265 254 254 255 250 251 253 253 253 254 256 259 259 259 258 257 255 253 252 249 247 247 247 248 245 240 236 234 235 239 244 246 246 245 243 241 239 240 242 243 244 244 243 243 244 246 248 248 246 240 236 235 234 236 238 240 241
116 240 250 234 183 117 69 68 84 72 73 81 99 112 256 271 167 278 305 293 274 118 281 344 324 283 281 274 265 264 257 260 265 259 255 255 256 258 260 263 263 262 261 260 260 257 253 250 246 245 246 247 247 244 241 238 237 239 244 249 251 250 247 244 243 243 243 243 242 243 243 242 243 244 245 245 245 244 242 241 239 238 239 240 242 242
207 253 273 165 123 113 100 67 82 89 31 328 129 140 211 247 138 190 292 318 343 1 5 19 334 292 302 324 289 280 277 277 280 273 261 258 258 260 262 263 262 262 263 263 262 258 252 248 246 246 247 246 246 246 246 245 246 249 252 253 254 252 248 244 243 243 243 242 240 239 239 238 238 238 239 239 241 243 243 244 243 243 242 242 242 241
232 270 317 118 84 92 107 104 137 136 122 308 218 173 188 161 135 110 14 25 32 347 330 46 3 291 304 313 281 296 317 299 299 293 271 267 265 260 259 260 260 261 262 263 263 258 254 250 247 246 245 245 246 248 251 252 253 255 256 256 255 253 249 246 244 243 242 242 240 239 238 238 238 237 238 240 244 246 247 249 250 248 246 244 244 243
221 302 82 132 116 87 94 121 215 142 116 265 237 200 168 125 112 89 58 51 68 270 291 70 96 270 299 293 256 269 297 292 299 294 276 273 267 259 259 260 260 262 264 265 265 261 255 249 246 245 245 246 249 252 253 253 253 253 254 253 252 251 250 248 246 244 243 242 242 242 242 243 244 244 245 246 247 249 251 253 253 253 251 249 248 248
155 118 74 96 97 87 106 171 227 136 118 212 235 179 123 99 109 113 91 84 203 248 324 20 112 214 291 281 210 200 304 299 292 282 276 272 266 262 261 262 262 263 264 262 260 259 252 246 244 245 247 250 252 254 253 251 251 250 251 251 249 248 247 247 247 246 245 245 245 245 245 246 247 248 250 250 250 250 251 252 252 253 254 254 253 252
131 158 168 130 96 98 162 217 225 125 108 235 225 149 114 112 124 114 96 85 20 20 323 315 102 155 274 278 273 71 322 296 280 270 272 275 275 271 265 264 262 254 251 253 253 250 245 241 243 245 248 250 251 251 250 250 250 249 248 248 246 245 244 244 245 246 246 247 248 248 249 249 250 251 251 251 251 251 251 252 253 254 254 255 254 251
74 174 186 140 125 177 194 249 241 134 120 207 181 91 67 73 77 76 94 91 38 20 259 243 176 190 268 281 295 357 312 268 270 276 284 296 294 280 258 234 211 219 236 241 239 236 240 239 240 244 246 247 248 246 246 247 245 245 244 244 243 242 242 243 244 245 247 248 249 250 251 253 253 253 252 252 251 250 251 252 253 254 255 255 254 251
341 108 155 124 146 173 152 72 18 96 128 130 97 62 42 26 34 42 60 77 55 293 254 228 195 190 266 281 265 247 225 228 262 303 328 1 53 119 144 147 155 208 224 226 233 229 235 240 240 242 241 240 241 239 240 240 239 240 240 242 242 241 242 244 245 247 249 250 252 254 255 256 256 256 255 254 254 254 254 254 255 257 258 258 257 253
350 55 211 129 132 127 109 60 23 40 93 101 81 77 58 356 12 16 1 48 88 256 263 254 204 175 234 260 251 252 253 242 241 278 317 39 104 115 126 136 166 214 224 263 277 254 240 249 258 253 239 230 227 227 231 232 232 234 236 239 241 241 243 246 249 251 252 254 256 258 259 260 260 259 258 258 259 259 259 259 260 260 261 260 259 255
331 263 246 76 116 141 110 69 22 6 31 75 90 95 82 344 10 2 310 290 230 245 261 297 233 196 234 242 249 266 270 257 221 188 185 166 136 123 121 153 250 244 275 301 291 281 273 271 278 276 262 239 221 215 216 220 226 231 237 241 243 245 247 250 252 254 255 257 259 261 263 263 263 262 262 262 263 263 263 264 263 263 263 263 262 258
287 305 311 80 316 199 148 124 127 295 128 128 134 130 130 141 141 256 260 276 268 258 273 324 333 264 281 260 234 245 258 272 294 185 178 160 142 121 22 323 305 297 313 310 285 285 288 289 292 284 272 250 227 219 220 224 234 242 248 251 254 255 255 254 254 254 255 256 259 261 263 265 265 265 265 265 266 266 267 267 266 267 267 267 267 263
193 289 220 173 196 186 178 178 164 153 168 182 156 137 154 162 165 201 206 209 247 273 290 302 269 210 231 271 237 236 262 283 298 280 206 213 178 52 325 312 320 323 325 318 302 301 300 300 297 287 278 264 245 240 242 244 248 253 260 264 265 264 260 257 254 254 255 255 257 260 262 265 266 267 267 267 267 267 268 269 269 271 271 271 270 267
175 251 233 206 174 170 180 194 158 125 135 231 141 118 180 191 154 151 191 182 177 303 289 254 236 212 212 273 272 263 269 280 290 291 286 269 218 293 304 301 329 337 335 324 313 321 317 309 302 290 282 270 259 255 255 255 256 261 269 272 270 265 259 255 251 250 252 251 252 253 255 260 261 263 264 265 266 266 267 269 271 273 274 273 272 269
162 268 273 257 175 180 181 182 161 146 177 202 152 172 207 179 127 124 255 334 93 250 267 211 248 280 322 290 282 281 275 284 291 291 292 286 283 315 320 334 347 347 15 357 342 354 348 333 321 307 294 282 271 267 263 260 259 263 270 272 267 257 250 247 244 242 241 239 240 243 247 254 260 265 267 266 268 268 268 269 271 274 275 273 272 271
155 240 303 132 206 248 210 161 120 71 133 136 187 208 180 95 86 110 223 348 47 248 276 235 241 276 324 276 302 352 340 303 287 272 273 277 298 331 334 352 7 78 87 41 16 11 360 349 338 329 321 306 289 278 267 260 257 258 263 266 258 246 241 241 237 229 227 230 237 245 251 261 270 276 277 275 273 269 267 268 270 273 275 275 272 269
144 186 298 51 197 273 345 144 181 355 83 139 182 188 123 117 248 115 166 200 158 241 277 271 253 252 214 225 290 316 298 288 273 257 259 272 331 346 337 350 360 83 70 31 20 11 3 359 351 346 343 333 320 303 279 261 255 253 256 259 250 238 231 228 226 221 224 230 235 246 254 263 275 281 284 283 280 277 274 272 270 269 272 274 272 268
140 175 258 311 228 280 17 158 194 253 347 51 91 118 103 134 173 172 171 166 158 204 255 274 286 257 225 196 191 231 251 258 255 251 223 69 15 345 341 349 335 349 40 25 18 10 4 1 356 352 348 342 335 323 304 283 269 258 252 251 242 231 223 218 220 221 226 234 239 253 266 276 282 284 286 285 283 282 281 277 272 269 269 271 271 269
129 183 222 301 338 204 183 210 189 173 169 153 149 180 196 93 114 178 196 141 142 169 209 260 274 264 241 196 191 212 230 220 194 156 141 29 345 339 3 17 334 15 20 10 4 1 359 357 354 352 351 349 345 338 328 311 291 271 252 242 232 226 222 219 223 227 233 248 259 267 275 278 280 281 282 283 283 283 282 279 275 271 268 267 267 267
185 183 170 178 292 198 222 243 206 184 183 175 175 188 187 164 130 156 243 255 136 180 183 178 266 271 244 186 187 181 166 163 152 137 275 324 348 12 46 51 16 7 2 354 352 350 348 350 351 350 347 344 342 340 337 325 300 273 249 234 228 225 223 223 225 232 242 251 256 261 264 264 267 272 275 278 280 281 280 278 275 273 271 269 265 264
160 117 119 178 216 214 241 268 229 188 192 197 207 191 174 169 147 155 215 238 176 233 211 140 262 274 238 155 154 155 151 160 307 334 351 7 8 1 354 347 344 343 339 337 339 337 335 338 341 339 334 332 332 333 333 332 314 275 243 229 228 226 225 227 227 232 239 241 245 249 250 253 257 263 268 272 277 279 279 277 275 275 274 273 268 263
143 118 129 216 304 324 313 327 358 40 107 194 243 182 138 188 170 153 183 180 163 220 214 160 249 265 242 143 157 189 316 334 3 16 15 18 7 345 332 333 330 326 322 317 315 316 316 316 312 309 316 323 325 325 325 329 324 288 244 230 231 229 228 229 228 230 235 237 242 244 245 249 254 259 266 271 274 276 276 275 275 276 276 276 272 265
182 182 139 136 333 333 335 343 340 335 358 199 231 190 174 185 154 128 165 137 203 223 190 174 238 256 259 86 60 8 357 356 24 35 5 347 22 340 316 316 312 305 300 295 297 300 299 297 292 287 298 309 313 316 319 320 322 303 260 239 236 235 234 234 231 232 235 238 241 243 246 251 256 262 269 272 273 274 274 273 273 274 274 275 274 268
178 187 150 161 197 216 219 214 221 239 194 208 229 195 189 180 161 162 176 170 230 230 194 189 237 257 260 105 54 1 30 36 359 4 339 301 316 313 307 308 305 299 295 292 291 289 288 295 294 285 287 296 303 310 313 311 313 310 286 260 249 244 242 241 238 237 238 240 242 244 247 252 259 268 272 272 272 272 273 272 269 270 271 272 273 269
138 233 178 172 198 204 197 208 206 158 151 198 221 202 195 187 173 162 148 191 221 228 225 226 233 257 266 258 253 265 75 56 310 295 293 294 299 304 308 310 309 307 304 298 289 284 288 293 290 285 286 294 301 305 307 305 304 306 302 288 272 261 255 253 252 248 244 243 244 245 248 254 264 272 274 273 273 272 271 270 268 267 268 269 269 267
92 303 227 155 201 199 177 187 139 111 170 205 207 203 204 191 171 171 198 213 204 202 240 239 224 245 265 264 260 258 223 234 258 259 272 281 290 300 303 302 300 299 298 294 287 284 286 285 283 285 290 297 302 303 303 303 301 301 302 300 293 282 273 268 264 261 257 254 251 249 250 256 265 272 275 275 273 271 271 270 268 266 265 266 266 264
110 240 252 187 239 229 201 220 138 98 200 215 191 197 201 192 180 192 219 224 195 197 242 248 219 230 256 265 268 262 160 248 265 267 268 273 281 289 291 291 291 291 291 288 283 281 282 282 283 288 294 297 300 301 302 301 300 300 299 298 297 293 288 283 275 269 265 263 261 260 260 262 266 269 274 276 274 272 271 270 269 268 265 264 264 263
138 214 223 188 257 262 243 245 242 182 205 248 237 216 192 199 206 210 228 236 224 233 259 269 261 251 251 264 282 287 266 265 278 283 279 276 276 278 281 284 287 289 288 285 283 283 284 286 289 292 295 297 298 301 303 301 298 298 298 297 295 293 292 290 286 280 272 267 265 266 267 268 269 273 277 278 276 274 272 271 270 269 266 264 262 260
170 205 171 134 234 265 254 250 254 232 218 236 251 247 232 230 229 226 233 241 247 256 260 263 268 267 261 267 286 284 281 282 287 284 281 279 278 278 281 284 286 288 287 286 288 290 291 293 294 295 296 299 303 305 305 303 301 299 298 296 294 293 291 288 287 286 280 274 269 267 269 272 274 276 279 278 276 274 274 272 270 268 266 263 260 259
165 179 104 121 195 250 244 233 242 247 247 250 248 240 235 236 239 235 225 211 219 235 248 257 263 266 268 265 271 278 283 285 275 276 277 279 280 283 284 285 287 287 288 290 294 296 298 298 298 300 302 306 311 312 310 307 305 301 298 296 294 294 292 287 283 281 278 276 272 269 270 272 273 275 277 277 276 275 274 272 270 268 266 263 260 258
158 150 148 152 190 245 234 191 196 205 202 245 238 230 228 231 237 243 241 231 223 220 231 246 246 255 271 276 267 274 280 274 269 273 276 279 283 289 290 289 290 291 292 295 297 298 300 301 303 306 310 315 316 316 314 312 308 304 300 295 291 289 288 287 284 279 275 274 272 271 271 271 271 273 275 275 275 274 272 270 269 268 267 265 261 256
160 154 175 167 183 247 225 130 131 179 218 237 229 210 216 223 225 231 240 239 233 226 224 240 252 260 268 267 263 266 270 271 275 278 279 281 287 294 294 292 292 292 294 297 301 304 307 309 311 313 315 317 317 316 314 310 307 306 304 298 290 284 281 282 282 280 278 276 274 273 273 272 271 272 273 274 273 272 271 269 268 268 266 263 258 252
160 166 182 168 176 235 125 120 178 218 223 250 255 183 205 219 220 226 239 242 241 239 237 243 253 254 256 262 265 267 269 274 278 281 285 294 302 298 295 294 296 301 305 308 311 315 318 318 319 318 317 316 316 315 313 309 306 305 304 302 297 289 282 279 277 277 277 277 277 276 275 273 272 271 271 271 271 269 268 267 265 264 263 260 255 249
161 167 162 159 184 188 130 180 221 240 285 303 292 234 214 218 212 224 249 255 246 239 237 239 245 250 255 260 264 269 275 282 283 285 304 339 335 310 309 311 318 324 327 330 331 327 325 323 321 319 317 317 317 315 312 309 305 303 302 303 302 298 291 283 277 276 275 275 275 275 275 274 273 272 271 269 267 266 265 264 263 261 260 257 252 245
155 146 125 188 200 193 214 220 231 319 319 280 264 242 159 162 176 184 232 256 248 240 244 241 243 252 257 261 270 280 292 304 294 296 18 33 333 322 338 340 345 342 331 333 333 326 323 320 318 319 319 319 322 321 317 311 306 303 301 301 301 301 296 288 283 281 278 275 275 274 273 273 273 272 270 267 265 264 264 264 263 261 259 256 249 241
169 167 163 200 210 183 222 240 241 250 245 245 251 239 161 192 192 166 199 247 308 19 6 294 253 275 287 294 310 318 322 311 283 309 35 7 324 330 339 334 340 342 335 333 329 324 324 321 317 318 318 318 320 322 320 315 309 305 301 300 300 299 297 293 291 289 284 281 279 277 275 273 271 269 267 265 264 263 263 263 262 260 258 254 247 239
187 180 163 196 218 197 206 228 230 230 235 242 250 258 224 216 190 145 181 228 41 20 21 35 30 28 31 353 343 350 344 289 256 315 6 352 335 336 336 332 336 338 337 338 335 331 329 326 322 320 317 316 316 317 317 314 311 307 303 301 300 296 295 297 297 294 289 285 282 278 276 274 271 269 267 266 264 263 261 261 260 258 255 247 238 232
191 180 175 206 218 215 224 237 234 236 247 241 238 267 294 182 150 139 212 223 77 2 13 31 25 28 29 5 360 17 33 296 284 311 337 341 336 336 337 337 336 334 333 334 332 330 328 327 326 323 320 318 316 315 314 312 311 308 304 301 297 294 296 298 297 293 289 285 282 280 278 275 273 270 268 265 263 260 258 256 254 250 244 235 228 226
196 187 194 210 218 220 226 237 251 249 242 248 263 273 205 141 138 180 229 189 81 18 36 46 30 20 11 0 3 358 320 320 316 319 331 340 339 336 334 333 333 332 331 329 328 328 325 322 323 323 322 322 319 315 314 311 309 309 305 300 296 295 295 294 292 289 288 287 285 283 281 277 273 270 266 262 259 255 253 250 245 241 234 226 221 221
190 191 198 205 216 225 224 232 256 267 236 236 297 319 154 163 201 221 160 104 86 87 89 82 55 22 358 349 347 334 328 332 333 332 337 341 340 336 331 329 329 328 327 326 325 325 323 319 319 319 320 321 320 317 315 311 308 308 306 302 300 298 294 289 287 286 286 286 285 283 281 277 273 269 264 259 255 250 247 242 236 231 225 218 215 217
179 177 202 203 204 211 214 218 234 247 231 99 7 37 130 170 200 159 114 103 89 79 84 84 55 23 358 346 339 334 333 333 333 334 334 335 338 338 333 331 329 328 329 329 326 325 323 318 316 315 315 318 319 318 316 312 309 306 304 303 303 299 293 289 287 285 284 284 283 281 278 275 272 267 262 257 252 247 242 236 230 223 216 211 212 215
191 177 193 207 198 190 198 216 224 200 127 72 61 132 140 129 125 105 86 78 66 42 24 16 8 357 348 341 334 331 330 328 327 330 330 329 332 333 332 331 329 328 329 329 328 329 326 319 315 313 312 313 315 315 315 314 311 307 303 303 302 297 293 292 290 288 286 284 281 279 276 273 269 264 259 253 247 241 235 229 224 216 210 209 211 215
222 188 175 199 211 194 188 204 207 157 121 88 76 104 120 124 123 102 73 58 55 24 360 351 345 339 337 334 328 326 326 325 325 326 327 328 328 328 329 328 327 327 325 324 325 327 325 321 317 314 311 311 313 314 313 312 310 306 303 302 299 295 294 294 293 290 288 283 279 276 273 269 265 260 255 248 241 235 229 223 217 211 208 209 212 214
238 123 89 165 232 260 251 194 163 143 124 84 59 80 125 138 133 97 40 14 3 349 339 334 333 335 335 330 325 324 322 322 323 323 324 325 323 323 325 324 324 325 324 321 321 322 322 320 318 316 314 312 313 314 312 309 306 304 301 300 297 295 295 294 291 289 285 281 278 273 269 265 259 253 246 238 232 227 223 219 214 209 208 209 210 212
288 135 103 111 220 243 264 197 153 143 127 28 9 36 144 140 121 47 6 350 336 326 325 327 328 330 329 326 324 321 317 318 322 322 322 321 319 318 319 319 319 321 321 321 321 319 318 318 317 317 316 313 313 315 311 306 303 301 299 298 297 297 295 292 288 285 281 278 274 269 264 259 252 244 237 229 222 216 214 213 212 211 211 211 210 209
214 151 154 196 197 194 237 253 221 149 53 334 324 196 153 132 4 342 339 331 320 315 317 322 323 321 321 321 321 320 316 317 321 322 319 316 314 314 314 315 316 316 316 318 318 316 315 315 316 317 316 313 314 315 310 306 304 300 297 298 298 297 294 290 286 283 279 275 269 263 258 252 244 237 230 223 217 212 209 209 209 212 214 215 215 214
129 144 182 172 170 276 280 280 296 355 1 303 239 192 245 325 328 331 333 326 316 313 312 312 313 312 313 315 317 319 317 313 315 318 316 312 311 312 312 313 313 313 313 314 315 315 312 312 314 315 314 312 313 313 311 307 304 299 297 297 297 294 291 287 284 280 276 270 264 258 251 244 238 232 226 221 216 212 210 209 209 211 213 215 217 218
136 190 196 129 109 265 243 243 356 47 261 273 286 297 309 317 320 322 323 316 305 306 307 306 305 304 303 304 306 312 314 312 313 315 313 310 310 310 311 312 311 310 310 311 313 313 311 310 311 311 309 310 311 311 309 306 302 298 296 296 294 292 288 284 280 276 270 264 258 251 244 237 230 224 220 217 214 209 205 203 204 206 209 211 214 216
180 193 196 160 175 230 239 260 342 123 261 289 301 304 305 309 310 310 309 302 297 300 303 304 304 303 300 296 296 303 309 310 311 312 311 308 308 308 309 310 309 308 308 309 310 311 311 310 308 306 305 307 308 307 306 304 300 296 294 293 291 287 284 280 276 271 265 258 252 244 237 231 225 219 215 213 211 208 205 201 199 200 203 206 210 214
Height
1525 1529 1532 1532 1532 1531 1531 1533 1534 1534 1535 1536 1539 1542 1542 1542 1544 1543 1541 1539 1538 1538 1538 1537 1536 1534 1532 1530 1528 1528 1528 1528 1528 1527 1525 1525 1525 1525 1525 1525 1524 1524 1522 1522 1524 1524 1525 1526 1526 1527 1527 1528 1528 1529 1530 1531 1532 1533 1534 1535 1536 1538 1540 1541 1542 1543 1543 1544 1545 1547 1547 1547 1549 1550 1552 1553 1555 1556 1556 1558 1559 1560 1562 1564 1565 1566
1526 1532 1532 1529 1529 1529 1529 1531 1532 1533 1534 1535 1538 1541 1541 1542 1543 1543 1541 1539 1538 1539 1538 1537 1536 1532 1530 1529 1525 1526 1526 1525 1524 1524 1522 1520 1521 1521 1521 1521 1520 1520 1520 1520 1521 1521 1522 1523 1523 1524 1525 1525 1525 1526 1527 1528 1529 1530 1531 1532 1534 1535 1536 1537 1538 1540 1540 1541 1542 1542 1543 1545 1546 1547 1548 1550 1551 1553 1554 1555 1556 1558 1559 1561 1562 1563
1531 1533 1530 1527 1528 1529 1529 1530 1531 1532 1534 1536 1538 1540 1541 1542 1543 1543 1541 1539 1538 1538 1537 1538 1537 1530 1526 1526 1523 1522 1521 1519 1519 1519 1517 1517 1517 1518 1518 1517 1517 1517 1517 1517 1518 1519 1519 1520 1521 1521 1521 1522 1522 1523 1524 1526 1527 1528 1528 1529 1531 1532 1533 1534 1535 1536 1537 1538 1539 1540 1542 1543 1544 1545 1546 1547 1548 1550 1551 1552 1553 1555 1556 1557 1558 1560
1535 1532 1527 1527 1528 1528 1529 1531 1531 1533 1535 1537 1538 1542 1543 1542 1543 1543 1541 1539 1538 1538 1538 1539 1538 1528 1522 1522 1519 1517 1516 1515 1515 1514 1514 1515 1514 1514 1514 1514 1514 1513 1513 1514 1515 1516 1516 1517 1518 1518 1518 1519 1520 1521 1522 1523 1525 1525 1526 1526 1528 1529 1529 1531 1532 1533 1535 1536 1537 1539 1540 1542 1542 1543 1544 1544 1545 1546 1547 1549 1550 1551 1552 1554 1555 1556
1531 1528 1526 1527 1527 1527 1530 1531 1531 1533 1537 1538 1539 1541 1541 1540 1542 1542 1540 1538 1537 1539 1539 1539 1536 1525 1519 1521 1517 1513 1514 1513 1512 1511 1510 1511 1511 1511 1511 1510 1509 1509 1510 1512 1512 1513 1513 1514 1515 1515 1516 1517 1518 1519 1519 1521 1522 1523 1524 1524 1525 1526 1527 1528 1529 1530 1532 1533 1534 1536 1537 1538 1539 1539 1540 1540 1540 1541 1542 1544 1545 1547 1549 1550 1551 1553
1529 1527 1527 1527 1527 1528 1530 1531 1532 1534 1538 1540 1539 1540 1539 1538 1540 1541 1540 1539 1540 1543 1540 1540 1542 1530 1519 1521 1519 1513 1514 1512 1509 1509 1507 1507 1508 1508 1507 1505 1506 1507 1508 1509 1510 1510 1511 1511 1513 1513 1514 1515 1515 1517 1518 1519 1520 1520 1521 1522 1522 1523 1524 1525 1526 1528 1529 1530 1531 1532 1532 1533 1534 1534 1534 1535 1535 1537 1538 1540 1541 1543 1545 1547 1548 1548
1527 1527 1527 1527 1528 1529 1531 1532 1533 1534 1539 1542 1540 1540 1539 1538 1540 1540 1540 1541 1545 1547 1542 1542 1549 1543 1525 1517 1516 1515 1514 1512 1509 1507 1504 1504 1505 1504 1503 1502 1504 1506 1507 1507 1508 1508 1508 1509 1510 1511 1512 1513 1514 1515 1517 1517 1518 1518 1519 1519 1520 1520 1521 1522 1523 1525 1525 1526 1527 1528 1529 1530 1530 1531 1531 1532 1534 1535 1536 1538 1539 1540 1541 1543 1543 1544
1526 1527 1528 1528 1529 1531 1533 1534 1533 1533 1539 1542 1540 1539 1537 1536 1539 1540 1541 1543 1546 1547 1545 1544 1548 1551 1538 1516 1511 1515 1514 1512 1509 1505 1501 1500 1500 1500 1499 1501 1502 1505 1506 1506 1506 1505 1506 1507 1507 1509 1510 1511 1512 1514 1514 1515 1515 1515 1516 1516 1517 1517 1518 1519 1520 1521 1522 1523 1523 1524 1525 1526 1527 1528 1529 1531 1532 1533 1534 1535 1535 1536 1537 1538 1539 1539
1526 1526 1528 1528 1530 1533 1533 1533 1533 1533 1537 1539 1538 1538 1537 1537 1539 1541 1542 1545 1548 1548 1548 1547 1546 1553 1545 1519 1511 1516 1514 1511 1506 1501 1499 1497 1497 1497 1498 1500 1502 1504 1505 1505 1505 1504 1504 1505 1506 1507 1508 1509 1511 1511 1512 1512 1513 1513 1513 1513 1514 1514 1515 1516 1517 1518 1519 1520 1520 1522 1522 1523 1524 1525 1527 1529 1530 1531 1531 1531 1532 1532 1533 1534 1535 1535
1527 1527 1527 1527 1529 1531 1532 1534 1534 1533 1534 1537 1538 1538 1538 1540 1541 1543 1544 1545 1549 1551 1549 1547 1545 1549 1543 1521 1513 1516 1513 1509 1502 1498 1499 1497 1495 1495 1496 1499 1501 1503 1504 1503 1504 1504 1503 1504 1505 1506 1507 1508 1508 1509 1509 1509 1510 1510 1510 1510 1511 1511 1512 1513 1514 1514 1515 1516 1517 1518 1518 1519 1520 1522 1523 1525 1525 1526 1527 1528 1528 1528 1529 1530 1531 1531
1527 1527 1528 1528 1528 1529 1531 1535 1535 1533 1533 1535 1537 1539 1541 1544 1544 1546 1548 1547 1551 1550 1546 1545 1542 1545 1544 1525 1513 1513 1508 1504 1502 1500 1500 1498 1496 1496 1498 1500 1502 1502 1503 1503 1503 1503 1503 1504 1504 1505 1505 1506 1506 1507 1507 1507 1507 1507 1508 1508 1508 1509 1510 1510 1511 1511 1512 1513 1513 1514 1515 1516 1517 1518 1519 1520 1520 1522 1523 1524 1524 1525 1526 1526 1527 1528
1528 1528 1528 1527 1528 1529 1531 1533 1535 1535 1534 1535 1537 1540 1544 1547 1548 1550 1553 1554 1554 1551 1546 1546 1545 1547 1546 1525 1509 1508 1505 1503 1503 1501 1501 1500 1498 1498 1500 1501 1502 1503 1503 1503 1503 1503 1503 1503 1503 1504 1504 1504 1505 1505 1505 1505 1506 1506 1506 1506 1506 1507 1507 1508 1508 1509 1509 1510 1510 1511 1511 1512 1513 1515 1515 1516 1516 1518 1518 1519 1521 1521 1522 1522 1523 1524
1529 1527 1528 1528 1528 1528 1530 1534 1539 1538 1537 1537 1538 1542 1548 1555 1557 1557 1558 1560 1557 1551 1547 1547 1546 1543 1534 1517 1506 1505 1501 1501 1503 1501 1501 1501 1500 1500 1501 1502 1503 1503 1503 1503 1504 1503 1504 1503 1503 1503 1503 1503 1503 1503 1504 1504 1504 1504 1504 1504 1505 1505 1506 1506 1506 1506 1507 1507 1508 1508 1509 1510 1511 1512 1512 1512 1513 1514 1514 1515 1516 1517 1517 1518 1519 1520
1532 1531 1530 1530 1529 1528 1528 1533 1540 1540 1538 1538 1537 1540 1547 1557 1563 1561 1562 1563 1556 1548 1548 1549 1547 1537 1522 1510 1505 1501 1497 1498 1501 1501 1501 1501 1501 1500 1501 1502 1503 1503 1502 1502 1503 1503 1503 1503 1503 1503 1503 1503 1503 1503 1503 1503 1503 1503 1503 1503 1503 1504 1504 1504 1504 1504 1505 1505 1506 1506 1507 1508 1509 1509 1510 1510 1510 1511 1511 1511 1512 1512 1513 1513 1514 1515
1532 1532 1528 1526 1526 1525 1525 1527 1529 1532 1535 1536 1534 1536 1539 1544 1550 1552 1555 1555 1548 1546 1550 1551 1544 1530 1516 1507 1502 1500 1498 1498 1499 1500 1501 1501 1501 1501 1501 1502 1502 1501 1501 1501 1502 1503 1503 1503 1503 1503 1503 1503 1503 1502 1502 1502 1502 1502 1502 1502 1502 1502 1502 1502 1502 1502 1503 1503 1504 1505 1505 1506 1507 1507 1507 1508 1508 1508 1508 1508 1508 1508 1508 1509 1509 1511
1529 1526 1520 1520 1520 1519 1522 1523 1523 1528 1535 1536 1535 1537 1537 1534 1535 1542 1548 1547 1546 1549 1550 1547 1537 1522 1512 1504 1499 1500 1499 1497 1498 1498 1499 1500 1500 1501 1501 1501 1502 1501 1501 1501 1502 1503 1502 1502 1502 1502 1502 1502 1502 1502 1501 1501 1501 1501 1501 1501 1501 1501 1501 1500 1500 1501 1501 1502 1503 1503 1503 1504 1504 1505 1505 1505 1505 1505 1505 1505 1504 1504 1505 1505 1506 1507
1527 1525 1520 1520 1520 1519 1520 1521 1522 1525 1530 1535 1536 1535 1533 1531 1530 1537 1548 1550 1550 1550 1544 1539 1529 1517 1513 1506 1497 1499 1498 1496 1498 1496 1496 1498 1498 1499 1500 1500 1501 1501 1501 1502 1502 1502 1501 1502 1502 1501 1501 1501 1501 1500 1500 1500 1500 1500 1499 1499 1499 1499 1499 1499 1499 1499 1500 1500 1501 1501 1501 1502 1502 1502 1502 1502 1502 1502 1502 1502 1501 1501 1501 1502 1502 1503
1516 1522 1523 1522 1522 1521 1520 1521 1523 1522 1524 1530 1534 1530 1528 1532 1532 1534 1544 1551 1554 1553 1543 1535 1526 1518 1519 1512 1498 1497 1498 1497 1497 1496 1495 1496 1496 1498 1499 1499 1499 1499 1500 1501 1501 1501 1500 1500 1500 1500 1500 1500 1499 1499 1498 1498 1498 1497 1498 1497 1497 1497 1497 1497 1497 1498 1498 1499 1499 1500 1499 1500 1500 1500 1500 1500 1499 1499 1499 1499 1499 1499 1498 1498 1499 1500
1507 1517 1524 1525 1524 1523 1521 1522 1525 1524 1523 1524 1526 1525 1528 1535 1538 1538 1543 1547 1552 1555 1543 1530 1525 1521 1517 1510 1500 1497 1497 1495 1495 1495 1495 1496 1497 1498 1498 1498 1498 1498 1499 1499 1499 1499 1499 1499 1498 1497 1497 1497 1497 1497 1496 1496 1495 1494 1495 1495 1495 1495 1495 1496 1496 1496 1497 1497 1498 1498 1498 1498 1498 1498 1498 1498 1497 1497 1496 1496 1496 1496 1496 1495 1496 1496
1504 1512 1521 1525 1524 1523 1523 1523 1525 1525 1525 1524 1524 1526 1527 1530 1534 1535 1538 1540 1543 1550 1543 1531 1526 1516 1504 1502 1500 1497 1494 1493 1494 1495 1495 1496 1498 1498 1497 1496 1497 1498 1498 1497 1497 1497 1497 1497 1496 1495 1495 1494 1494 1494 1493 1492 1492 1491 1492 1493 1493 1494 1494 1494 1494 1495 1495 1495 1496 1496 1496 1496 1495 1495 1496 1495 1495 1495 1494 1494 1493 1493 1493 1493 1493 1493
1504 1508 1516 1525 1526 1525 1522 1519 1519 1520 1522 1524 1525 1528 1528 1529 1533 1533 1534 1534 1534 1540 1543 1538 1530 1512 1497 1496 1494 1492 1493 1493 1495 1495 1495 1496 1497 1497 1497 1497 1498 1498 1496 1496 1496 1496 1496 1495 1494 1493 1492 1491 1490 1490 1490 1489 1489 1489 1490 1491 1492 1492 1492 1492 1493 1493 1493 1493 1493 1493 1493 1493 1493 1493 1493 1493 1492 1492 1492 1491 1490 1490 1490 1490 1490 1490
1502 1507 1515 1525 1527 1522 1516 1513 1513 1513 1514 1516 1518 1521 1521 1524 1530 1534 1537 1534 1530 1531 1534 1538 1532 1506 1490 1492 1490 1490 1493 1492 1493 1495 1494 1495 1495 1495 1495 1495 1496 1496 1495 1497 1496 1496 1496 1494 1493 1492 1490 1490 1490 1489 1489 1488 1488 1488 1488 1489 1490 1490 1490 1490 1491 1491 1491 1491 1491 1491 1491 1491 1491 1491 1491 1491 1490 1490 1489 1488 1488 1487 1487 1487 1487 1487
1498 1505 1513 1520 1521 1517 1513 1512 1514 1513 1511 1513 1514 1515 1516 1518 1521 1528 1534 1532 1531 1530 1528 1535 1532 1500 1481 1488 1490 1490 1492 1490 1492 1493 1492 1493 1492 1492 1494 1494 1495 1496 1496 1498 1497 1495 1495 1493 1493 1492 1491 1492 1491 1490 1489 1487 1487 1486 1486 1487 1487 1487 1488 1488 1488 1488 1488 1488 1488 1489 1489 1489 1489 1488 1488 1488 1487 1487 1487 1486 1485 1484 1484 1484 1484 1484
1496 1502 1509 1515 1517 1515 1513 1513 1513 1512 1513 1515 1515 1515 1517 1519 1517 1519 1525 1526 1528 1528 1526 1536 1534 1501 1481 1486 1488 1488 1490 1489 1491 1491 1491 1493 1493 1494 1496 1496 1497 1498 1497 1498 1496 1495 1495 1493 1494 1494 1493 1492 1490 1489 1488 1486 1486 1485 1484 1484 1484 1484 1485 1485 1485 1485 1485 1485 1486 1486 1486 1486 1486 1486 1485 1485 1485 1484 1484 1483 1482 1481 1481 1480 1480 1480
1494 1499 1505 1513 1519 1519 1519 1519 1517 1515 1515 1515 1514 1514 1515 1516 1518 1520 1523 1525 1527 1524 1523 1531 1528 1500 1484 1487 1488 1488 1491 1490 1491 1493 1493 1494 1495 1496 1497 1498 1498 1498 1498 1497 1496 1495 1495 1494 1494 1493 1492 1491 1489 1488 1487 1485 1485 1484 1483 1482 1482 1482 1483 1483 1482 1482 1482 1482 1482 1483 1483 1483 1483 1483 1482 1482 1481 1481 1481 1480 1479 1478 1477 1477 1477 1477
1491 1496 1499 1506 1514 1517 1518 1518 1515 1513 1515 1515 1512 1512 1512 1514 1517 1519 1522 1528 1527 1521 1520 1523 1516 1496 1484 1488 1491 1490 1492 1493 1493 1494 1494 1494 1495 1496 1496 1497 1497 1497 1496 1496 1495 1494 1494 1493 1493 1491 1490 1489 1488 1487 1485 1484 1483 1483 1482 1481 1481 1481 1481 1480 1480 1479 1479 1479 1479 1479 1480 1480 1480 1479 1479 1479 1478 1478 1477 1476 1475 1474 1474 1474 1474 1474
1492 1495 1495 1497 1502 1504 1506 1507 1506 1506 1509 1511 1508 1508 1511 1512 1513 1515 1521 1523 1520 1518 1519 1515 1508 1497 1487 1487 1491 1491 1492 1495 1494 1494 1495 1494 1494 1494 1494 1494 1495 1495 1495 1494 1493 1493 1492 1491 1490 1489 1488 1487 1486 1485 1483 1482 1481 1480 1480 1479 1479 1479 1478 1478 1478 1476 1476 1476 1475 1476 1476 1476 1476 1476 1475 1475 1475 1474 1473 1472 1472 1471 1470 1470 1470 1470
1494 1497 1496 1497 1498 1499 1501 1502 1504 1505 1505 1506 1506 1507 1510 1511 1513 1514 1515 1511 1510 1517 1516 1505 1504 1504 1492 1483 1485 1490 1493 1495 1494 1494 1494 1493 1493 1493 1492 1492 1492 1491 1492 1492 1491 1490 1488 1486 1485 1485 1485 1485 1484 1482 1481 1479 1478 1477 1477 1476 1476 1476 1475 1476 1475 1474 1473 1473 1472 1473 1473 1473 1473 1472 1472 1472 1471 1471 1470 1469 1468 1468 1467 1467 1466 1466
1494 1498 1497 1498 1499 1500 1501 1502 1503 1505 1506 1505 1506 1507 1508 1511 1513 1512 1508 1504 1505 1511 1507 1498 1502 1505 1493 1481 1481 1488 1493 1493 1491 1492 1492 1492 1492 1491 1490 1489 1488 1488 1488 1488 1487 1486 1483 1482 1483 1483 1482 1481 1480 1479 1477 1476 1475 1474 1473 1473 1472 1472 1471 1471 1470 1470 1470 1470 1469 1470 1470 1469 1469 1468 1468 1468 1467 1467 1466 1465 1465 1464 1464 1464 1463 1463
1494 1498 1497 1499 1501 1499 1500 1502 1503 1505 1508 1507 1506 1507 1507 1508 1508 1507 1505 1503 1505 1507 1503 1501 1503 1499 1490 1484 1482 1485 1490 1490 1488 1489 1488 1488 1488 1488 1487 1486 1485 1485 1486 1484 1482 1481 1480 1481 1481 1480 1479 1478 1477 1476 1474 1473 1471 1470 1469 1469 1468 1468 1468 1467 1466 1465 1466 1465 1466 1467 1466 1465 1464 1463 1463 1463 1462 1462 1461 1461 1461 1461 1461 1461 1460 1460
1494 1497 1498 1500 1504 1502 1499 1500 1502 1504 1506 1507 1507 1507 1506 1505 1504 1505 1505 1505 1507 1507 1503 1502 1503 1493 1484 1485 1484 1481 1483 1487 1487 1485 1483 1483 1483 1484 1484 1484 1483 1483 1481 1479 1478 1478 1478 1478 1477 1476 1475 1474 1473 1472 1471 1469 1468 1467 1465 1465 1464 1464 1464 1463 1461 1461 1461 1461 1462 1462 1462 1461 1460 1459 1458 1458 1458 1457 1457 1457 1456 1457 1457 1457 1457 1457
1494 1499 1500 1503 1507 1503 1497 1499 1502 1502 1505 1509 1509 1505 1502 1501 1500 1500 1501 1502 1502 1502 1501 1503 1502 1490 1480 1484 1486 1479 1478 1484 1485 1480 1478 1478 1479 1481 1482 1481 1480 1479 1477 1475 1475 1475 1474 1473 1473 1472 1472 1471 1470 1469 1467 1466 1465 1464 1462 1461 1460 1460 1459 1458 1457 1457 1456 1456 1457 1457 1457 1456 1455 1454 1453 1453 1453 1453 1453 1452 1452 1452 1453 1453 1453 1453
1493 1498 1500 1503 1505 1500 1494 1497 1501 1504 1509 1508 1500 1494 1494 1496 1496 1496 1496 1495 1494 1496 1499 1499 1493 1484 1479 1482 1484 1479 1476 1479 1479 1476 1474 1474 1476 1479 1479 1477 1476 1475 1473 1472 1472 1471 1470 1469 1469 1468 1468 1467 1466 1465 1464 1463 1461 1460 1459 1458 1457 1456 1455 1454 1453 1453 1452 1452 1453 1452 1452 1452 1451 1450 1450 1449 1449 1449 1449 1448 1447 1448 1448 1449 1450 1449
1492 1494 1496 1499 1500 1497 1494 1497 1501 1505 1504 1493 1481 1481 1485 1488 1490 1491 1490 1487 1486 1488 1490 1488 1484 1482 1481 1479 1478 1476 1474 1474 1475 1473 1471 1472 1475 1477 1476 1474 1472 1470 1470 1470 1468 1467 1467 1466 1465 1465 1464 1463 1462 1461 1461 1460 1458 1457 1456 1454 1453 1452 1451 1450 1449 1449 1448 1449 1448 1448 1448 1448 1447 1446 1446 1445 1445 1445 1444 1444 1443 1443 1444 1445 1445 1445
1491 1493 1494 1496 1497 1495 1495 1499 1501 1497 1489 1478 1473 1476 1478 1477 1479 1482 1481 1480 1481 1483 1483 1483 1482 1480 1478 1476 1473 1472 1471 1472 1473 1470 1468 1471 1475 1475 1473 1470 1468 1468 1468 1467 1466 1465 1464 1463 1462 1461 1460 1459 1459 1458 1457 1456 1454 1453 1452 1451 1449 1448 1447 1446 1445 1445 1445 1444 1444 1444 1444 1443 1442 1442 1441 1441 1440 1440 1439 1439 1439 1439 1439 1440 1441 1441
1489 1492 1493 1494 1496 1495 1496 1498 1494 1485 1478 1476 1474 1473 1473 1475 1478 1481 1482 1479 1478 1478 1479 1480 1479 1476 1475 1474 1471 1469 1470 1471 1471 1470 1470 1471 1472 1472 1470 1469 1467 1467 1466 1465 1464 1463 1461 1460 1459 1458 1457 1456 1455 1454 1453 1452 1451 1449 1448 1447 1446 1444 1443 1442 1441 1440 1440 1439 1439 1439 1439 1438 1438 1437 1436 1436 1435 1435 1434 1434 1434 1435 1435 1436 1437 1438
1486 1491 1493 1494 1494 1492 1491 1491 1486 1482 1480 1477 1471 1467 1470 1473 1474 1478 1481 1476 1472 1474 1476 1476 1475 1474 1473 1472 1470 1469 1470 1470 1468 1469 1470 1470 1469 1469 1468 1467 1467 1466 1464 1464 1463 1461 1460 1458 1457 1455 1454 1453 1452 1450 1449 1448 1446 1445 1444 1443 1442 1440 1439 1438 1436 1436 1435 1435 1434 1434 1434 1433 1433 1432 1432 1431 1431 1431 1431 1431 1431 1431 1432 1433 1434 1434
1483 1486 1489 1492 1491 1490 1490 1489 1487 1488 1484 1473 1464 1463 1466 1468 1468 1472 1476 1474 1471 1474 1475 1473 1474 1474 1473 1473 1472 1470 1470 1470 1467 1467 1469 1469 1467 1466 1465 1465 1464 1463 1462 1462 1460 1458 1458 1456 1454 1453 1451 1450 1449 1447 1446 1444 1442 1441 1439 1438 1437 1436 1435 1433 1432 1432 1431 1430 1430 1429 1429 1428 1428 1427 1427 1427 1427 1427 1427 1427 1428 1428 1429 1430 1430 1431
1482 1483 1485 1489 1489 1489 1491 1490 1485 1482 1475 1465 1461 1463 1465 1466 1466 1470 1477 1477 1473 1474 1475 1474 1475 1475 1474 1475 1473 1470 1470 1470 1466 1466 1469 1468 1465 1464 1463 1462 1461 1460 1460 1459 1457 1455 1454 1452 1451 1450 1448 1447 1445 1444 1443 1441 1440 1438 1436 1435 1433 1432 1430 1430 1429 1427 1426 1426 1425 1425 1424 1424 1423 1423 1423 1422 1423 1423 1423 1424 1424 1425 1426 1427 1427 1429
1483 1484 1485 1488 1486 1485 1487 1486 1480 1475 1468 1462 1461 1463 1464 1464 1465 1472 1480 1478 1474 1474 1475 1474 1474 1475 1475 1475 1474 1472 1472 1472 1469 1467 1469 1468 1465 1463 1462 1460 1459 1458 1456 1456 1455 1453 1450 1449 1447 1446 1445 1443 1442 1441 1440 1438 1436 1435 1433 1431 1430 1428 1427 1426 1425 1423 1423 1422 1421 1421 1420 1420 1420 1419 1419 1419 1419 1419 1419 1420 1421 1422 1422 1424 1425 1426
1481 1481 1482 1483 1483 1483 1484 1482 1477 1471 1464 1461 1461 1462 1463 1464 1468 1474 1476 1474 1473 1474 1474 1473 1474 1474 1474 1474 1474 1473 1473 1472 1470 1468 1467 1466 1464 1461 1460 1459 1458 1456 1454 1453 1451 1450 1448 1446 1445 1443 1442 1440 1439 1437 1436 1435 1433 1432 1430 1428 1427 1425 1424 1423 1421 1420 1419 1418 1418 1417 1417 1416 1416 1415 1415 1415 1415 1415 1415 1416 1417 1418 1419 1421 1422 1423
1477 1477 1478 1479 1480 1481 1480 1480 1479 1471 1462 1459 1460 1460 1461 1464 1468 1471 1471 1470 1472 1473 1472 1472 1473 1472 1472 1472 1472 1471 1470 1468 1467 1465 1464 1464 1462 1459 1457 1455 1454 1453 1452 1450 1448 1446 1444 1442 1441 1440 1439 1437 1436 1434 1433 1431 1430 1428 1427 1425 1424 1423 1421 1419 1418 1417 1416 1415 1414 1413 1412 1412 1412 1411 1411 1411 1411 1411 1411 1412 1413 1414 1416 1418 1419 1421
1469 1472 1474 1473 1473 1475 1478 1480 1480 1471 1461 1458 1459 1459 1461 1464 1466 1467 1468 1470 1471 1471 1471 1472 1472 1471 1472 1471 1469 1468 1466 1464 1464 1463 1461 1461 1459 1457 1455 1452 1450 1449 1448 1447 1446 1444 1442 1440 1438 1437 1436 1434 1433 1431 1430 1428 1426 1425 1423 1421 1420 1419 1418 1416 1415 1414 1413 1411 1410 1409 1408 1408 1407 1407 1407 1407 1407 1408 1408 1409 1410 1411 1412 1414 1416 1417
1462 1466 1468 1465 1465 1469 1473 1471 1467 1462 1458 1458 1459 1460 1462 1464 1465 1466 1467 1469 1469 1470 1470 1470 1470 1471 1471 1470 1469 1467 1465 1462 1461 1460 1459 1457 1455 1454 1453 1451 1449 1447 1445 1445 1444 1442 1440 1438 1435 1434 1433 1432 1430 1428 1426 1425 1422 1421 1419 1418 1417 1415 1414 1413 1412 1410 1408 1407 1406 1405 1404 1404 1403 1403 1403 1403 1404 1404 1405 1406 1407 1408 1410 1412 1413 1415
1456 1456 1457 1457 1458 1461 1461 1459 1457 1456 1458 1459 1460 1460 1462 1463 1464 1465 1466 1467 1468 1468 1468 1469 1469 1469 1469 1468 1468 1466 1464 1462 1459 1458 1457 1455 1453 1452 1451 1450 1448 1446 1443 1442 1441 1440 1438 1436 1433 1431 1429 1428 1427 1425 1423 1421 1419 1417 1415 1414 1413 1411 1410 1409 1407 1406 1404 1403 1402 1401 1401 1400 1400 1400 1400 1400 1401 1401 1402 1403 1404 1406 1408 1409 1411 1412
1452 1452 1451 1452 1455 1455 1454 1454 1455 1456 1458 1459 1459 1461 1461 1462 1463 1464 1465 1466 1466 1467 1467 1467 1467 1467 1467 1466 1465 1463 1462 1460 1458 1456 1454 1452 1451 1450 1449 1448 1446 1445 1442 1439 1438 1437 1435 1433 1431 1428 1426 1425 1424 1422 1420 1418 1416 1413 1411 1410 1409 1407 1406 1405 1403 1402 1401 1400 1399 1398 1397 1397 1397 1397 1397 1398 1398 1399 1400 1402 1403 1404 1405 1407 1408 1410
1451 1452 1452 1453 1455 1455 1453 1453 1454 1455 1457 1458 1459 1459 1460 1461 1462 1463 1464 1464 1464 1464 1465 1464 1464 1464 1464 1463 1462 1461 1459 1457 1456 1454 1452 1450 1449 1447 1446 1445 1443 1442 1440 1437 1435 1433 1431 1429 1427 1425 1423 1421 1420 1418 1416 1414 1412 1410 1408 1406 1405 1404 1402 1401 1400 1399 1398 1397 1396 1395 1394 1394 1394 1394 1395 1395 1396 1398 1399 1401 1402 1403 1404 1405 1406 1407
1449 1451 1453 1453 1454 1454 1453 1452 1453 1455 1456 1456 1457 1458 1458 1460 1461 1461 1462 1463 1462 1462 1462 1461 1461 1461 1460 1460 1460 1459 1457 1456 1455 1453 1450 1448 1446 1445 1443 1442 1440 1438 1437 1435 1433 1431 1428 1426 1424 1422 1419 1417 1415 1414 1412 1409 1408 1407 1405 1403 1402 1401 1399 1398 1397 1396 1395 1395 1394 1393 1392 1391 1391 1391 1392 1393 1395 1396 1398 1399 1401 1402 1404 1405 1406 1407
1447 1449 1451 1452 1453 1453 1452 1451 1451 1454 1454 1454 1455 1456 1457 1458 1458 1459 1460 1460 1460 1459 1459 1458 1459 1458 1457 1457 1457 1456 1455 1453 1452 1450 1448 1446 1444 1442 1440 1438 1437 1435 1433 1432 1431 1429 1426 1424 1421 1418 1415 1413 1411 1410 1407 1405 1404 1403 1401 1400 1399 1398 1397 1396 1395 1394 1393 1392 1391 1391 1390 1390 1389 1390 1390 1391 1393 1394 1396 1398 1399 1401 1403 1405 1406 1406
1446 1447 1448 1451 1453 1452 1451 1450 1451 1453 1454 1453 1453 1454 1455 1455 1455 1455 1456 1456 1456 1456 1455 1455 1455 1455 1455 1455 1454 1453 1452 1451 1449 1448 1446 1443 1441 1439 1437 1435 1433 1431 1429 1428 1427 1425 1423 1421 1419 1415 1412 1410 1408 1406 1404 1402 1401 1399 1398 1397 1396 1395 1394 1393 1392 1392 1391 1390 1389 1389 1388 1388 1388 1388 1388 1389 1390 1391 1393 1395 1397 1399 1401 1402 1404 1405
1443 1444 1445 1448 1450 1449 1448 1449 1451 1453 1453 1453 1453 1454 1453 1453 1453 1453 1453 1453 1453 1453 1453 1452 1451 1451 1451 1452 1452 1451 1449 1448 1447 1445 1443 1440 1438 1436 1434 1432 1430 1427 1425 1424 1422 1420 1419 1417 1415 1412 1409 1407 1405 1403 1401 1399 1398 1397 1396 1394 1393 1392 1391 1390 1390 1389 1388 1387 1387 1386 1387 1387 1386 1386 1386 1387 1387 1389 1390 1392 1394 1396 1398 1400 1401 1403